Theta_e
294 295 295 294 294 295 294 295 292 295 296 299 308 312 313 315 319 319 320 321 321 320 320 321 320 320 322 322 323 323 322 322 321 322 322 322 321 321 322 321 320 319 317 315
290 296 296 293 296 296 296 296 296 295 295 307 311 313 313 316 318 318 318 317 316 316 316 316 317 317 319 319 319 320 318 318 318 318 318 319 319 319 317 315 315 315 313 310
286 294 292 289 294 296 297 299 298 293 297 302 305 310 312 314 312 311 311 311 311 311 312 313 314 315 315 316 316 315 314 314 314 314 314 315 315 313 312 312 313 312 311 306
286 288 283 297 302 301 298 300 302 302 303 304 304 310 310 310 309 308 308 308 309 310 311 313 314 314 313 313 311 311 311 311 312 312 312 312 311 310 310 312 310 308 306 303
284 284 291 298 299 299 297 297 304 302 302 306 306 306 304 308 308 307 306 307 308 309 310 310 309 310 309 309 309 308 308 310 310 310 310 309 308 307 308 308 308 306 305 304
286 284 285 293 302 307 305 292 305 308 303 303 305 295 299 306 306 306 307 308 307 307 307 307 308 308 307 306 306 306 307 308 309 309 308 306 307 306 307 307 305 305 304 304
286 286 291 300 303 307 293 291 306 306 305 304 300 301 303 304 304 306 306 306 308 308 306 306 307 306 304 304 304 305 307 306 306 307 305 306 307 307 306 306 305 304 303 304
287 284 286 301 305 299 302 309 302 302 301 299 299 300 299 300 300 301 302 303 304 304 304 306 307 306 304 303 306 306 306 305 305 306 304 305 305 304 302 302 307 306 305 302
288 287 297 303 307 309 311 306 301 299 298 296 295 295 297 297 298 299 302 302 303 302 303 303 305 306 304 305 306 306 305 304 305 305 305 303 298 295 294 296 296 296 297 297
291 292 298 304 305 310 309 305 302 300 298 296 293 293 294 296 297 298 299 301 302 302 301 301 303 304 304 305 306 305 303 303 305 302 300 300 297 293 291 290 291 290 292 291
289 293 297 300 300 301 302 301 298 297 295 295 293 292 293 293 294 297 297 300 300 300 299 300 303 303 304 305 305 304 305 304 304 302 301 297 293 294 289 287 287 286 288 289
288 294 293 295 298 299 296 295 295 294 293 295 295 293 293 293 295 297 299 300 299 300 300 301 302 303 304 305 306 304 302 301 301 301 301 296 293 288 287 287 287 287 287 287
291 294 293 294 296 297 295 295 295 295 295 294 295 295 295 295 297 299 299 299 299 298 300 300 300 300 301 302 304 303 302 301 300 299 298 298 297 293 287 286 286 286 286 287
297 295 291 293 291 294 295 296 297 297 297 297 297 298 298 299 300 298 298 299 299 299 299 299 298 298 300 299 300 300 300 295 298 298 297 296 296 296 295 294 290 289 288 287
295 295 294 295 295 294 295 295 294 294 296 297 299 299 298 298 298 298 300 300 299 298 297 297 297 297 300 300 298 299 298 297 296 296 295 295 296 295 295 294 294 292 290 290
297 296 295 295 295 295 295 295 294 294 297 299 298 299 300 300 299 299 299 298 297 296 297 296 297 298 298 297 296 295 295 292 295 296 295 295 295 294 293 294 293 292 289 289
298 297 298 298 298 298 297 298 297 296 296 297 298 299 299 299 298 297 297 297 298 297 297 297 296 298 297 298 298 296 295 295 292 295 294 294 294 293 293 292 292 291 291 290
298 299 299 298 297 297 297 297 297 297 297 298 299 299 298 297 296 296 296 297 296 296 296 296 298 297 297 296 298 296 295 294 294 293 293 292 293 293 293 292 291 291 291 291
298 296 296 297 297 297 297 296 297 297 298 298 298 297 298 297 297 296 296 293 292 291 293 295 293 295 295 292 295 295 295 294 293 293 293 291 293 292 291 291 291 291 291 291
298 298 297 296 297 296 296 297 298 298 298 298 297 297 296 297 297 297 296 294 294 295 296 296 296 295 296 296 293 295 294 293 292 292 291 291 292 291 291 289 290 290 290 290
298 298 297 296 296 296 296 296 296 296 297 297 296 296 296 298 298 296 294 291 294 296 296 294 295 294 294 292 294 294 293 293 292 292 291 291 291 290 290 290 290 290 290 289
298 297 297 297 297 296 297 297 296 296 297 297 297 297 296 296 297 297 297 294 294 289 295 294 293 286 289 286 294 293 293 292 292 292 291 290 290 290 290 289 289 289 289 289
299 299 298 297 297 297 298 297 296 296 295 296 296 296 296 297 297 294 292 295 296 293 294 291 286 285 284 294 294 293 293 292 293 291 292 292 291 291 289 288 289 289 289 289
301 300 300 300 299 298 296 297 297 297 296 297 298 298 297 296 296 297 296 291 290 293 291 289 288 285 283 294 294 293 293 293 292 293 291 287 293 292 291 289 289 289 288 289
304 302 300 299 299 298 298 298 297 297 296 296 297 297 298 299 296 295 295 294 288 293 291 284 285 285 292 294 293 292 292 290 290 292 293 293 291 291 292 292 290 289 289 289
304 302 301 302 301 300 299 298 296 296 295 294 296 297 297 297 297 295 294 292 295 292 292 289 291 293 295 294 293 292 292 290 291 291 290 293 291 291 292 292 290 290 290 289
306 300 303 302 301 301 300 299 298 296 296 296 295 297 297 297 296 295 293 295 295 295 295 294 293 292 294 293 293 293 293 293 289 291 291 294 293 292 292 291 292 290 289 289
Wind_Speed
18 19 12 17 12 16 20 19 14 6 11 8 10 24 22 25 25 26 25 22 20 19 18 17 17 16 17 16 15 15 14 14 13 11 10 10 9 8 6 6 5 7 9 11
17 15 8 13 16 17 22 18 20 10 7 15 8 18 22 23 24 24 22 19 20 21 20 18 17 17 17 16 15 14 14 13 12 12 11 9 8 7 11 12 10 9 10 10
7 14 18 12 22 20 18 16 12 4 2 8 5 11 23 22 21 24 22 24 21 21 18 17 17 16 16 15 14 13 13 13 12 11 10 11 11 11 9 8 8 8 7 9
8 9 4 11 13 16 18 16 9 11 4 11 12 20 22 24 27 22 23 23 21 18 18 17 16 15 14 13 14 13 13 12 12 12 12 11 11 8 6 5 6 6 9 8
4 8 11 20 9 13 18 12 7 16 6 9 25 27 21 22 23 23 22 20 19 18 17 16 14 13 14 15 14 13 12 12 12 11 12 11 10 7 5 5 5 8 8 7
4 6 5 11 20 8 11 5 6 15 16 21 25 19 13 20 23 22 21 17 18 17 16 14 13 13 15 14 14 13 13 13 12 12 11 11 8 7 6 6 6 5 6 5
4 4 4 10 19 11 5 3 7 19 20 21 21 14 19 23 21 20 19 18 16 15 13 13 12 12 15 14 13 12 12 12 11 11 10 9 7 5 5 4 4 4 4 3
2 3 3 15 10 3 7 16 20 19 25 28 24 22 21 21 21 19 17 16 14 13 13 12 12 11 14 14 13 13 12 12 11 9 8 6 6 6 7 7 1 2 5 4
5 3 12 9 8 13 10 21 22 22 20 26 25 22 21 19 17 14 15 14 14 13 14 11 11 11 15 12 11 12 10 10 9 8 7 10 11 11 8 9 8 8 7 7
2 12 18 20 20 6 20 22 22 20 23 23 26 21 20 17 15 13 11 14 13 14 14 14 11 11 11 11 11 11 10 8 8 10 9 10 9 8 8 8 8 7 7 8
5 8 13 21 19 20 24 24 23 20 21 23 24 22 18 15 11 10 10 9 11 13 13 13 11 11 10 10 9 8 7 7 8 9 11 10 10 7 8 8 8 7 6 7
5 8 10 13 17 22 22 20 21 23 23 18 21 21 18 14 8 6 10 11 11 12 12 12 11 10 9 9 8 7 6 7 6 6 9 9 8 8 14 9 6 5 8 7
5 13 17 20 19 18 23 20 21 23 22 21 15 16 17 13 8 11 11 12 11 12 12 12 12 12 11 10 9 9 7 6 5 6 6 5 8 8 7 2 3 4 6 2
9 10 17 12 12 16 21 21 22 20 17 15 16 13 17 14 13 13 12 11 11 12 12 12 12 12 11 11 9 8 7 10 7 6 6 6 5 5 5 6 7 4 8 10
15 16 17 15 16 17 19 18 19 16 15 14 14 15 15 15 14 13 12 12 12 12 12 13 12 11 11 12 11 9 8 7 7 5 6 6 5 6 6 6 6 8 7 1
5 16 19 19 17 16 17 14 14 15 13 15 15 15 15 14 14 13 12 11 10 10 11 11 11 10 11 12 10 8 6 8 7 5 6 6 6 6 5 5 5 6 5 5
12 16 18 20 19 18 16 17 17 14 13 15 15 15 15 14 14 14 13 12 11 11 10 10 9 9 10 9 9 7 6 5 5 7 7 6 6 6 5 5 5 6 5 4
12 14 14 16 17 17 18 17 16 16 14 16 14 15 15 14 13 13 13 11 12 12 11 10 8 9 11 10 6 6 6 7 7 7 7 6 6 6 5 5 6 6 6 5
16 13 12 13 14 16 16 16 16 16 15 14 15 15 14 13 12 12 11 12 12 11 9 9 7 8 7 7 7 7 7 7 7 6 6 3 5 6 6 6 6 7 7 6
15 15 15 15 16 15 15 14 14 14 14 14 14 14 14 13 12 12 12 11 10 7 9 9 9 7 7 8 6 7 7 7 7 7 5 6 6 6 6 7 7 7 7 7
13 14 15 15 14 14 13 12 13 13 13 13 12 12 12 11 13 13 11 9 9 8 7 4 7 6 6 8 6 8 8 7 7 7 7 7 6 7 7 7 7 7 6 7
11 11 13 13 12 13 12 12 12 12 11 12 12 12 11 11 10 10 10 9 7 7 5 7 6 9 6 12 8 8 7 7 7 6 7 7 6 6 7 7 7 7 7 7
10 11 11 11 11 12 11 11 11 11 11 11 10 11 9 7 8 8 8 8 6 6 7 7 5 5 6 1 7 7 7 7 6 7 5 5 4 6 6 7 7 7 7 6
10 10 11 11 11 11 11 11 10 10 10 10 9 8 7 7 8 8 9 10 10 8 8 5 2 4 5 2 6 7 6 6 5 5 5 2 3 5 5 6 6 7 7 7
9 11 11 10 10 8 10 10 9 9 9 8 8 6 6 6 7 7 7 8 10 8 7 3 1 6 7 4 4 5 7 7 4 4 3 4 4 4 5 3 4 5 5 6
9 8 8 9 8 8 8 8 8 7 7 7 6 6 6 7 8 7 7 8 8 7 8 6 5 4 2 4 4 5 5 5 4 3 2 3 3 3 4 3 4 5 5 5
4 6 7 6 6 7 8 7 7 8 7 7 7 7 8 7 7 8 9 8 7 7 7 7 6 4 3 4 3 2 2 5 2 3 2 1 3 3 3 2 1 4 5 5
Wind_Direction
292 292 214 244 264 224 225 219 222 246 281 320 231 115 122 127 122 121 121 121 113 112 109 116 121 122 120 118 116 112 112 106 102 103 104 96 89 85 83 71 64 38 48 59
306 296 313 276 283 276 231 229 233 58 344 15 249 117 127 121 122 119 117 109 110 111 117 118 113 105 103 103 100 104 108 107 102 98 93 89 86 76 53 51 43 51 54 66
282 330 327 289 227 235 201 205 114 215 187 350 319 127 115 109 105 104 110 113 105 102 101 99 96 99 100 103 105 102 100 99 96 94 94 80 66 64 58 57 58 59 62 75
292 319 247 274 164 169 169 110 122 92 48 161 244 100 94 101 106 107 104 99 97 96 94 94 95 97 102 101 97 94 93 93 90 91 84 78 74 70 66 61 54 57 68 80
296 301 286 43 116 158 165 88 91 121 112 189 95 83 74 89 92 97 95 92 93 91 89 92 96 96 98 95 98 94 92 87 85 81 77 80 69 58 46 61 54 67 67 73
325 295 23 342 344 332 99 59 353 192 153 120 103 93 104 98 93 94 91 93 93 89 88 86 82 87 93 88 88 84 81 77 75 82 78 74 67 55 39 55 51 47 91 81
264 289 318 344 333 302 143 188 114 100 118 102 92 102 106 96 88 86 92 101 105 103 105 102 104 100 94 92 88 91 90 92 86 82 80 84 87 84 81 87 106 108 120 120
193 262 22 355 340 37 143 129 101 96 103 96 97 97 94 93 94 97 108 113 110 107 105 102 102 106 101 96 94 88 87 81 69 65 81 88 62 53 32 358 109 150 125 123
33 306 272 309 77 127 129 105 112 107 102 109 107 104 103 105 103 100 104 108 107 102 99 93 93 92 88 88 92 93 91 93 100 103 93 87 61 39 28 9 23 23 14 27
323 347 23 49 47 207 94 99 102 110 114 107 108 99 94 96 104 106 97 102 101 99 94 89 83 84 92 99 102 99 94 81 80 83 69 56 81 59 43 24 30 26 18 35
348 355 42 45 61 72 85 96 103 101 105 111 105 98 101 94 85 90 95 90 97 92 92 95 97 92 90 94 98 104 118 133 126 137 104 81 64 61 83 51 34 47 19 57
12 13 63 55 81 90 94 96 100 104 101 97 105 107 104 100 107 97 100 97 95 97 99 99 96 94 99 108 114 112 81 59 57 85 122 123 112 89 56 92 68 58 70 49
54 62 66 64 73 86 93 98 97 99 99 103 105 111 110 121 126 115 104 103 98 96 93 88 86 82 78 77 67 64 89 117 88 86 81 80 139 146 140 152 249 267 286 274
77 80 68 55 80 79 88 89 92 95 98 108 113 121 114 112 108 101 98 96 101 98 95 92 91 92 99 101 98 97 81 50 58 64 76 82 76 67 88 140 158 162 232 256
77 87 84 91 95 92 89 91 94 102 115 118 113 108 103 102 103 103 99 94 91 92 91 91 89 81 72 63 52 63 74 86 96 76 61 75 79 60 57 56 51 78 35 352
129 128 124 120 114 110 111 119 112 113 113 108 105 104 102 103 102 100 98 93 85 81 84 88 92 100 111 109 103 95 78 19 81 90 85 76 69 67 66 64 68 82 56 20
102 110 114 114 113 107 103 105 104 98 101 105 105 108 109 99 93 89 89 89 88 86 84 87 93 95 95 101 109 114 106 81 58 71 69 73 73 64 60 58 55 57 101 17
43 66 84 95 100 101 104 109 113 114 114 115 113 110 108 105 104 103 101 98 92 84 72 54 71 76 64 39 78 84 76 79 82 82 84 59 69 50 46 56 59 50 46 49
114 100 90 91 99 104 107 107 109 112 113 112 110 108 106 110 111 111 112 107 105 102 94 85 68 90 74 24 359 90 91 85 78 85 83 103 75 82 51 33 44 50 36 34
109 109 104 100 99 106 111 112 113 109 107 112 115 119 121 120 122 110 100 100 106 111 115 109 96 84 63 25 45 91 79 82 91 86 53 70 36 50 54 54 39 39 39 28
102 107 110 114 119 116 113 113 115 117 121 124 124 123 125 118 107 120 115 109 116 111 109 128 102 97 68 20 46 57 59 60 63 60 51 39 43 40 47 27 35 33 40 23
107 107 110 110 110 110 113 118 118 119 120 120 123 124 121 133 122 103 115 120 142 193 105 89 85 30 12 324 85 90 87 75 65 51 52 46 38 34 31 34 15 28 27 19
119 116 118 123 121 120 123 123 122 124 126 132 133 135 140 124 122 130 127 135 142 118 104 101 69 15 339 256 98 97 92 84 84 85 48 64 35 60 31 28 6 22 17 1
124 129 118 120 129 133 130 126 131 132 134 133 138 130 137 129 86 73 102 90 88 110 105 117 107 343 320 238 128 132 122 94 87 80 128 65 68 80 56 23 4 19 359 355
131 127 137 140 144 134 132 133 127 125 132 120 132 141 123 112 123 129 138 116 144 128 120 110 353 306 285 79 74 80 90 73 39 61 51 75 35 56 89 47 6 0 336 359
139 156 150 174 141 146 147 161 150 151 148 155 153 155 123 117 111 116 131 154 151 146 143 151 194 227 261 65 75 66 78 128 170 91 353 72 31 38 63 55 13 342 338 344
169 148 153 150 152 161 165 172 153 145 175 160 159 152 141 137 160 143 149 160 152 195 146 161 178 217 341 123 127 112 104 111 118 40 338 332 24 20 48 28 7 321 334 332